West Chicago, IL

4:13 PM CDT on August 30, 2016 (GMT -0500)
Du Page

Weather History for KDPA - October, 2013

Change the Weather History Date:

Sunday, October 27, 2013

  Actual Average Record
Temperature  
Mean Temperature 40 °F 49 °F  
Max Temperature 54 °F 59 °F 77 °F (2014)
Min Temperature 26 °F 39 °F 23 °F (1997)
Degree Days  
Heating Degree Days 25 16  
Month to date heating degree days 375 332  
Since 1 July heating degree days 500 443  
Cooling Degree Days 0 0  
Month to date cooling degree days 16 11  
Year to date cooling degree days 745 814  
Moisture  
Dew Point 29 °F    
Average Humidity 67    
Maximum Humidity 92    
Minimum Humidity 40    
Precipitation  
Precipitation 0.00 in 0.10 in 0.55 in (1998)
Month to date precipitation 0.92 2.85  
Year to date precipitation 30.38 31.77  
Sea Level Pressure  
Sea Level Pressure 30.04 in    
Wind  
Wind Speed 6 mph (SSW)    
Max Wind Speed 17 mph    
Max Gust Speed 24 mph    
Visibility 10 miles    
Events      
T = Trace of Precipitation, MM = Missing Value Source: NWS Daily Summary

Daily Weather History Graph

Daily Weather History Graph

Search for Another Location

Airport or City:

Trip Planner

Search our weather history database for the weather conditions in past years. The results will help you decide how hot, cold, wet, or windy it might be!

Date:

Astronomy

Oct. 27, 2013 Rise Set
Actual Time 7:19 AM CDT 5:53 PM CDT
Civil Twilight 6:51 AM CDT 6:22 PM CDT
Nautical Twilight 6:18 AM CDT 6:54 PM CDT
Astronomical Twilight 5:45 AM CDT 7:27 PM CDT
Moon 12:10 AM CDT (10/27) 2:08 PM CDT (10/27)
Length of Visible Light 11h 31m
Length of Day
10h 33m
Last Quarter, 43% of the Moon is Illuminated
Oct 27
Last Quarter
Nov 3
New
Nov 9
First Quarter
Nov 17
Full
Nov 25
Last Quarter

Hourly Weather History & Observations

Time (CDT) Temp. Windchill Dew Point Humidity Pressure Visibility Wind Dir Wind Speed Gust Speed Precip Events Conditions
12:52 AM 35.1 °F - 28.0 °F 76% 30.08 in 10.0 mi Calm Calm - N/A   Clear
1:52 AM 30.9 °F - 28.0 °F 89% 30.06 in 10.0 mi Calm Calm - N/A   Clear
2:52 AM 28.9 °F - 26.1 °F 89% 30.05 in 10.0 mi Calm Calm - N/A   Clear
3:52 AM 28.9 °F - 26.1 °F 89% 30.05 in 10.0 mi Calm Calm - N/A   Clear
4:52 AM 28.0 °F - 25.0 °F 88% 30.06 in 10.0 mi Calm Calm - N/A   Clear
5:52 AM 27.0 °F - 24.1 °F 89% 30.07 in 10.0 mi Calm Calm - N/A   Clear
6:52 AM 27.0 °F 21.6 °F 24.1 °F 89% 30.06 in 10.0 mi South 4.6 mph - N/A   Clear
7:52 AM 28.0 °F 24.2 °F 26.1 °F 92% 30.08 in 10.0 mi South 3.5 mph - N/A   Clear
8:52 AM 34.0 °F 31.0 °F 30.0 °F 85% 30.09 in 10.0 mi South 3.5 mph - N/A   Clear
9:52 AM 42.1 °F 36.6 °F 32.0 °F 67% 30.07 in 10.0 mi SW 9.2 mph - N/A   Clear
10:52 AM 48.0 °F - 30.9 °F 52% 30.07 in 10.0 mi WSW 11.5 mph - N/A   Clear
11:52 AM 50.0 °F - 30.9 °F 48% 30.05 in 10.0 mi WSW 12.7 mph 20.7 mph N/A   Clear
12:52 PM 53.1 °F - 30.9 °F 43% 30.03 in 10.0 mi SW 11.5 mph - N/A   Clear
1:52 PM 54.0 °F - 30.0 °F 40% 30.01 in 10.0 mi WSW 10.4 mph 19.6 mph N/A   Clear
2:52 PM 54.0 °F - 30.0 °F 40% 29.99 in 10.0 mi SW 15.0 mph - N/A   Clear
3:52 PM 53.1 °F - 28.9 °F 40% 29.98 in 10.0 mi SSW 12.7 mph - N/A   Clear
4:52 PM 53.1 °F - 30.0 °F 41% 29.98 in 10.0 mi SSW 12.7 mph - N/A   Clear
5:52 PM 48.9 °F - 30.0 °F 48% 29.99 in 10.0 mi SSW 9.2 mph - N/A   Clear
6:52 PM 42.1 °F 37.7 °F 30.0 °F 62% 30.00 in 10.0 mi South 6.9 mph - N/A   Clear
7:52 PM 41.0 °F 37.1 °F 28.9 °F 62% 30.01 in 10.0 mi South 5.8 mph - N/A   Clear
8:52 PM 39.0 °F 34.8 °F 28.9 °F 67% 30.01 in 10.0 mi South 5.8 mph - N/A   Clear
9:52 PM 39.9 °F 37.8 °F 30.0 °F 68% 30.03 in 10.0 mi South 3.5 mph - N/A   Clear
10:52 PM 37.9 °F - 28.9 °F 70% 30.05 in 10.0 mi Calm Calm - N/A   Clear
11:52 PM 34.0 °F - 28.9 °F 82% 30.07 in 10.0 mi Calm Calm - N/A   Mostly Cloudy